Photometre #648[NE_1.6] Lille AOT

File : 20221125_648.hum

25/11/2022,08:31:42,TEMP=7.7,BA=5.60,STAT.A=3.0,ExtBa=12.30
25/11/2022,08:34:45,TEMP=8.0,BA=5.60,STAT.F,ExtBa=12.09
25/11/2022,08:49:44,TEMP=8.6,BA=5.60,STAT.D=3.0,ExtBa=12.30
25/11/2022,09:04:44,TEMP=8.4,BA=5.60,STAT.D=3.0,ExtBa=12.29
25/11/2022,09:19:44,TEMP=8.3,BA=5.60,STAT.D=3.0,ExtBa=12.29
25/11/2022,09:34:46,TEMP=9.1,BA=5.60,STAT.F,ExtBa=12.16
25/11/2022,09:54:01,TEMP=10.2,BA=5.44,STAT.D=3.0,ExtBa=12.15
25/11/2022,10:04:44,TEMP=11.0,BA=5.60,STAT.D=3.0,ExtBa=12.28
25/11/2022,10:19:44,TEMP=11.8,BA=5.60,STAT.D=3.0,ExtBa=12.32
25/11/2022,10:34:46,TEMP=12.3,BA=5.60,STAT.F,ExtBa=12.24
25/11/2022,10:54:52,TEMP=12.3,BA=5.44,STAT.D=3.0,ExtBa=12.09
25/11/2022,11:04:44,TEMP=12.3,BA=5.60,STAT.D=3.0,ExtBa=12.25
25/11/2022,11:19:44,TEMP=12.9,BA=5.60,STAT.D=3.0,ExtBa=12.93
25/11/2022,11:34:46,TEMP=13.4,BA=5.60,STAT.F,ExtBa=12.89
25/11/2022,11:58:46,TEMP=13.0,BA=5.44,STAT.D=3.0,ExtBa=12.05
25/11/2022,12:04:44,TEMP=13.0,BA=5.44,STAT.D=3.0,ExtBa=12.17
25/11/2022,12:19:44,TEMP=13.5,BA=5.60,STAT.D=3.0,ExtBa=12.27
25/11/2022,12:34:46,TEMP=13.9,BA=5.60,STAT.F,ExtBa=12.24
25/11/2022,12:54:31,TEMP=13.4,BA=5.44,STAT.D=3.0,ExtBa=12.01
25/11/2022,13:04:44,TEMP=13.5,BA=5.60,STAT.D=3.0,ExtBa=12.20
25/11/2022,13:19:44,TEMP=13.8,BA=5.60,STAT.D=3.0,ExtBa=12.25
25/11/2022,13:34:46,TEMP=13.9,BA=5.60,STAT.F,ExtBa=12.23
25/11/2022,13:53:13,TEMP=13.2,BA=5.40,STAT.D=3.0,ExtBa=11.99
25/11/2022,14:04:44,TEMP=13.0,BA=5.60,STAT.D=3.0,ExtBa=12.19
25/11/2022,14:19:44,TEMP=12.3,BA=5.60,STAT.D=3.0,ExtBa=12.24
25/11/2022,14:34:45,TEMP=12.2,BA=5.60,STAT.F,ExtBa=12.23
25/11/2022,14:53:18,TEMP=12.1,BA=5.44,STAT.A=3.0,ExtBa=11.98